KE5QKR Weather Reports


time (UTC)temp
C
wind
direction
speed
KPH
gust
KPH
rain 1hr
cm
rain 24hr
cm
rain mn
cm
humidity
%
barometer
mb
20260504130557 15 347 0.0 1.6 0.00 0.00 0.00 99 1017.0
20260504110444 8 330 0.0 0.0 0.00 0.00 0.00 99 1016.7
20260504100407 10 330 0.0 0.0 0.00 0.00 0.00 99 1016.6
20260504081800 11 330 0.0 0.0 0.00 0.00 0.00 99 1016.6
20260504081256 11 330 0.0 0.0 0.00 0.00 0.00 99 1016.7
20260504080753 11 330 0.0 0.0 0.00 0.00 0.00 99 1016.6
20260504080249 11 330 0.0 0.0 0.00 0.00 0.00 99 1016.5
20260504070217 11 325 0.0 0.0 0.00 0.00 0.00 99 1016.8
20260504060137 12 326 0.0 0.0 0.00 0.00 0.00 98 1017.5
20260504050606 12 334 0.0 0.0 0.00 0.00 0.00 98 1017.8
20260504045559 12 327 0.0 0.0 0.00 0.05 0.05 97 1017.9
20260504045054 12 328 0.0 0.0 0.00 0.05 0.05 97 1017.8
20260504044553 12 328 0.0 0.0 0.00 0.05 0.05 97 1018.1
20260504044049 12 328 0.0 0.0 0.00 0.05 0.05 97 1017.7
20260504043547 12 327 0.0 0.0 0.00 0.05 0.05 96 1017.9
20260504043044 12 328 0.0 0.0 0.00 0.05 0.05 96 1017.6
20260504042541 12 328 0.0 0.0 0.00 0.05 0.05 96 1017.9
20260504042038 12 320 0.0 0.0 0.00 0.05 0.05 96 1017.8
20260504041533 12 320 0.0 0.0 0.00 0.05 0.05 96 1017.8
20260504041029 12 323 0.0 0.0 0.00 0.05 0.05 96 1017.9
20260504040527 12 322 0.0 0.0 0.00 0.05 0.05 95 1018.0
20260504040024 12 324 0.0 0.0 0.00 0.05 0.05 95 1017.7
20260504035521 12 324 0.0 0.0 0.00 0.05 0.05 95 1017.7
20260504035017 12 324 0.0 0.0 0.00 0.05 0.05 95 1018.0
20260504034515 12 318 0.0 0.0 0.00 0.05 0.05 94 1018.0
20260504034012 12 315 0.0 0.0 0.00 0.05 0.05 94 1017.8
20260504033509 12 315 0.0 0.0 0.00 0.05 0.05 94 1017.8
20260504033007 13 318 0.0 0.0 0.00 0.05 0.05 94 1017.9
20260504032503 13 323 0.0 0.0 0.00 0.05 0.05 93 1017.8
20260504032000 13 323 0.0 0.0 0.00 0.05 0.05 93 1017.7
20260504031456 13 315 0.0 0.0 0.00 0.05 0.05 93 1017.9
20260504030953 13 314 1.6 3.2 0.00 0.05 0.05 92 1017.9
20260504030451 13 329 0.0 0.0 0.00 0.05 0.05 91 1017.7
20260504025946 13 329 0.0 0.0 0.00 0.05 0.05 91 1017.6
20260504025443 13 329 0.0 0.0 0.00 0.05 0.05 90 1017.8
20260504024941 13 328 0.0 0.0 0.00 0.05 0.05 89 1017.7
20260504024438 13 329 0.0 0.0 0.00 0.05 0.05 89 1017.5
20260504023934 13 329 0.0 0.0 0.00 0.05 0.05 89 1017.5
20260504023431 13 329 0.0 0.0 0.00 0.05 0.05 89 1017.5
20260504022926 13 328 0.0 0.0 0.00 0.05 0.05 88 1017.4
20260504022423 13 328 0.0 0.0 0.00 0.05 0.05 87 1017.5
20260504021920 14 328 0.0 0.0 0.00 0.05 0.05 87 1017.4
20260504021417 14 328 0.0 0.0 0.00 0.05 0.05 87 1017.1
20260504020914 15 328 0.0 0.0 0.00 0.05 0.05 87 1017.1
20260504020411 15 328 0.0 0.0 0.00 0.05 0.05 86 1017.1
20260504015908 15 329 0.0 0.0 0.00 0.05 0.05 85 1017.0
20260504015403 15 328 0.0 0.0 0.00 0.05 0.05 85 1017.0
20260504014859 15 326 0.0 0.0 0.00 0.05 0.05 84 1016.9
20260504014355 15 326 0.0 0.0 0.00 0.05 0.05 84 1016.9
20260504013853 15 326 0.0 0.0 0.00 0.05 0.05 84 1016.7
20260504013351 15 326 0.0 0.0 0.00 0.05 0.05 83 1016.9
20260504012847 15 326 0.0 0.0 0.00 0.05 0.05 82 1016.8
20260504012345 15 326 0.0 0.0 0.00 0.05 0.05 81 1016.7
20260504011842 16 326 0.0 0.0 0.00 0.05 0.05 81 1016.6
20260504011339 16 326 0.0 0.0 0.13 0.05 0.05 80 1016.6
20260504010835 16 326 0.0 0.0 0.13 0.05 0.05 79 1016.6
20260504010330 16 326 0.0 0.0 0.00 0.03 0.03 77 1016.4
20260504005827 17 326 0.0 0.0 0.00 0.03 0.03 74 1016.5
20260504005324 17 325 0.0 0.0 0.00 0.03 0.03 74 1016.4
20260504004822 17 327 0.0 0.0 0.00 0.03 0.03 73 1016.4
20260504004319 17 327 0.0 0.0 0.00 0.03 0.03 71 1016.4
20260504003815 18 326 0.0 0.0 0.00 0.03 0.03 72 1016.5
20260504003313 18 325 0.0 0.0 0.00 0.03 0.03 70 1016.2
20260504002809 18 343 0.0 0.0 0.00 0.03 0.03 69 1016.4
20260504002306 18 334 0.0 0.0 0.00 0.03 0.03 63 1016.3
20260504001804 19 325 0.0 0.0 0.00 0.03 0.03 64 1016.2
20260504001301 19 322 0.0 0.0 0.00 0.03 0.03 67 1016.5
20260504000758 20 351 1.6 1.6 0.00 0.03 0.03 63 1016.1
20260504000254 20 330 0.0 0.0 0.00 0.03 0.03 59 1016.2
20260503235752 20 330 0.0 0.0 0.00 0.03 0.03 61 1016.1
20260503235249 21 330 0.0 0.0 0.00 0.03 0.03 58 1015.8
20260503234747 22 330 0.0 0.0 0.00 0.03 0.03 53 1016.2
20260503234245 22 340 0.0 1.6 0.00 0.03 0.03 48 1016.1
20260503233742 22 331 3.2 3.2 0.00 0.03 0.03 44 1016.3
20260503233238 22 338 3.2 4.8 0.00 0.03 0.03 44 1016.3
20260503232735 22 305 1.6 4.8 0.00 0.03 0.03 43 1016.2
20260503232232 22 343 4.8 4.8 0.00 0.03 0.03 44 1016.3
20260503231730 23 340 1.6 4.8 0.00 0.03 0.03 41 1016.4
20260503231226 23 336 4.8 4.8 0.00 0.03 0.03 46 1016.1
20260503230722 23 313 0.0 8.0 0.00 0.03 0.03 46 1016.1
20260503230220 23 321 0.0 1.6 0.00 0.03 0.03 42 1016.2
20260503225717 23 322 0.0 1.6 0.00 0.03 0.03 43 1016.3
20260503225217 23 346 1.6 9.7 0.00 0.03 0.03 40 1016.2
20260503224715 24 310 0.0 0.0 0.00 0.03 0.03 40 1016.4
20260503224213 24 320 0.0 0.0 0.00 0.03 0.03 43 1016.5
20260503223710 23 348 3.2 4.8 0.00 0.03 0.03 42 1016.4
20260503223207 23 52 1.6 4.8 0.00 0.03 0.03 42 1016.5
20260503222704 23 347 4.8 9.7 0.00 0.03 0.03 40 1016.4
20260503222201 23 45 4.8 11.3 0.00 0.03 0.03 40 1016.5
20260503221700 23 330 4.8 8.0 0.00 0.03 0.03 40 1016.6
20260503221157 23 330 1.6 3.2 0.00 0.03 0.03 41 1016.5
20260503220653 23 359 4.8 11.3 0.00 0.03 0.03 40 1016.8
20260503220150 23 295 4.8 11.3 0.00 0.03 0.03 38 1016.7
20260503215647 24 301 1.6 3.2 0.00 0.03 0.03 40 1016.8
20260503215143 24 308 3.2 3.2 0.00 0.03 0.03 43 1016.7
20260503214643 24 305 3.2 3.2 0.00 0.03 0.03 39 1016.8
20260503214138 23 306 1.6 8.0 0.00 0.03 0.03 40 1016.8
20260503213638 24 312 6.4 11.3 0.00 0.03 0.03 40 1017.0
20260503213134 24 299 4.8 12.9 0.00 0.03 0.03 37 1017.1
20260503212631 23 305 1.6 4.8 0.00 0.03 0.03 37 1016.9
20260503212129 23 30 1.6 8.0 0.00 0.03 0.03 36 1017.3
20260503211626 24 353 4.8 4.8 0.00 0.03 0.03 35 1017.2
20260503211121 24 285 1.6 8.0 0.00 0.03 0.03 36 1017.4
20260503210618 25 300 3.2 4.8 0.00 0.03 0.03 37 1017.4
20260503210115 23 248 8.0 11.3 0.00 0.03 0.03 41 1017.6
20260503205611 23 299 3.2 11.3 0.00 0.03 0.03 38 1017.5
20260503205107 23 269 4.8 11.3 0.00 0.03 0.03 39 1017.5
20260503204604 23 346 3.2 9.7 0.00 0.03 0.03 39 1017.8
20260503204101 24 96 1.6 3.2 0.00 0.03 0.03 39 1017.6
20260503203558 24 314 1.6 3.2 0.00 0.03 0.03 43 1017.9
20260503203055 23 304 1.6 4.8 0.00 0.03 0.03 38 1018.1
20260503202553 23 328 4.8 9.7 0.00 0.03 0.03 37 1018.0
20260503202051 23 306 6.4 9.7 0.00 0.03 0.03 39 1018.2
20260503201549 23 320 6.4 9.7 0.00 0.03 0.03 37 1018.2
20260503201046 23 280 6.4 9.7 0.00 0.03 0.03 37 1018.2
20260503200541 23 326 3.2 3.2 0.00 0.03 0.03 35 1018.2
20260503200039 23 327 9.7 14.5 0.00 0.03 0.03 38 1018.3
20260503195536 23 0 8.0 9.7 0.00 0.03 0.03 36 1018.6
20260503195032 23 298 3.2 11.3 0.00 0.03 0.03 38 1018.6
20260503194530 23 299 8.0 22.5 0.00 0.03 0.03 39 1018.7
20260503194030 23 312 8.0 9.7 0.00 0.03 0.03 37 1018.6
20260503193527 23 354 4.8 8.0 0.00 0.03 0.03 38 1018.6
20260503193021 23 313 6.4 9.7 0.00 0.03 0.03 41 1018.9
20260503192518 23 299 6.4 14.5 0.00 0.03 0.03 37 1019.0
20260503192014 23 346 6.4 9.7 0.00 0.03 0.03 39 1018.8
20260503191511 23 331 3.2 9.7 0.00 0.03 0.03 42 1018.8
20260503191008 23 282 3.2 8.0 0.00 0.03 0.03 39 1019.1
20260503190505 24 269 1.6 3.2 0.00 0.03 0.03 41 1019.1
20260503190002 23 55 1.6 4.8 0.00 0.03 0.03 46 1019.5
20260503185458 23 103 3.2 3.2 0.00 0.03 0.03 40 1019.2
20260503184958 22 271 4.8 9.7 0.00 0.03 0.03 42 1019.4
20260503184454 22 22 4.8 14.5 0.00 0.03 0.03 43 1019.7
20260503183951 22 346 3.2 4.8 0.00 0.03 0.03 39 1019.8
20260503183448 22 18 1.6 8.0 0.00 0.03 0.03 40 1019.6
20260503182944 22 51 4.8 9.7 0.00 0.03 0.03 41 1019.7
20260503182443 22 352 8.0 14.5 0.00 0.03 0.03 38 1019.8
20260503181940 22 311 8.0 11.3 0.00 0.03 0.03 40 1019.5
20260503181437 22 348 8.0 14.5 0.00 0.03 0.03 41 1019.7
20260503180933 22 296 1.6 3.2 0.00 0.03 0.03 38 1019.8
20260503180432 22 50 3.2 4.8 0.00 0.03 0.03 40 1019.8
20260503175928 22 327 0.0 3.2 0.00 0.03 0.03 42 1020.1
20260503175426 22 69 4.8 9.7 0.00 0.03 0.03 39 1020.1
20260503174922 22 344 6.4 12.9 0.00 0.03 0.03 37 1019.9
20260503174421 22 350 1.6 3.2 0.00 0.03 0.03 42 1020.1
20260503173920 22 351 4.8 4.8 0.00 0.03 0.03 40 1020.2
20260503173417 22 333 3.2 4.8 0.00 0.03 0.03 41 1020.3
20260503172914 22 45 3.2 12.9 0.00 0.03 0.03 40 1020.4
20260503172411 22 15 4.8 8.0 0.00 0.03 0.03 40 1020.6
20260503171907 22 293 4.8 9.7 0.00 0.03 0.03 41 1020.6
20260503171404 22 311 3.2 3.2 0.00 0.03 0.03 40 1020.6
20260503170901 22 311 1.6 8.0 0.00 0.03 0.03 41 1020.8
20260503170358 22 290 4.8 16.1 0.00 0.03 0.03 40 1020.7
20260503150750 22 49 3.2 3.2 0.00 0.03 0.03 44 1020.8
20260503150246 21 72 3.2 8.0 0.00 0.03 0.03 43 1021.1
20260503140210 19 357 1.6 4.8 0.00 0.03 0.03 59 1020.7